Austin Bergstrom, TX

12:02 PM CDT on September 24, 2017 (GMT -0500)
Austin Bergstrom International

Weather History for KAUS - March, 2012

Change the Weather History Date:

Thursday, March 8, 2012

  Actual Average Record
Temperature  
Mean Temperature 62 °F 57 °F  
Max Temperature 76 °F 70 °F 88 °F (1951)
Min Temperature 48 °F 44 °F 26 °F (2008)
Degree Days  
Heating Degree Days 3 9  
Month to date heating degree days 43 80  
Since 1 July heating degree days 1416 1695  
Cooling Degree Days 0 1  
Month to date cooling degree days 8 8  
Year to date cooling degree days 42 24  
Growing Degree Days 12 (Base 50)    
Moisture  
Dew Point 60 °F    
Average Humidity 86    
Maximum Humidity 97    
Minimum Humidity 74    
Precipitation  
Precipitation 0.11 in 0.09 in 0.58 in (2014)
Month to date precipitation 0.12 0.73  
Year to date precipitation 11.28 5.24  
Snow  
Snow 0.00 in - - ()
Month to date snowfall 0.0  
Since 1 July snowfall T  
Snow Depth 0.00 in    
Sea Level Pressure  
Sea Level Pressure 30.00 in    
Wind  
Wind Speed 13 mph (SSE)    
Max Wind Speed 28 mph    
Max Gust Speed 36 mph    
Visibility 9 miles    
Events Rain    
T = Trace of Precipitation, MM = Missing Value Source: NWS Daily Summary

Daily Weather History Graph

Daily Weather History Graph

Search for Another Location

Airport or City:

Trip Planner

Search our weather history database for the weather conditions in past years. The results will help you decide how hot, cold, wet, or windy it might be!

Date:

Astronomy

Mar. 08, 2012 Rise Set
Actual Time 6:48 AM CST 6:34 PM CST
Civil Twilight 6:24 AM CST 6:58 PM CST
Nautical Twilight 5:56 AM CST 7:26 PM CST
Astronomical Twilight 5:28 AM CST 7:54 PM CST
Moon 7:15 PM CST (3/8) 6:38 AM CST (3/8)
Length of Visible Light 12h 34m
Length of Day
11h 46m
Full, 100% of the Moon is Illuminated
Mar 8
Full
Mar 14
Last Quarter
Mar 22
New
Mar 30
First Quarter
Apr 6
Full

Hourly Weather History & Observations

Time (CST) Temp. Dew Point Humidity Pressure Visibility Wind Dir Wind Speed Gust Speed Precip Events Conditions
12:12 AM 71.6 °F 66.2 °F 83% 29.94 in 9.0 mi South 15.0 mph - 0.00 in   Light Drizzle
12:37 AM 71.6 °F 66.2 °F 83% 29.94 in 10.0 mi SSE 15.0 mph - 0.00 in   Mostly Cloudy
12:53 AM 70.0 °F 66.9 °F 90% 29.92 in 10.0 mi SSE 10.4 mph - 0.00 in   Overcast
1:53 AM 70.0 °F 68.0 °F 93% 29.91 in 9.0 mi South 13.8 mph - 0.00 in   Overcast
2:51 AM 69.8 °F 66.2 °F 88% 29.91 in 8.0 mi SSE 13.8 mph - N/A   Overcast
2:53 AM 70.0 °F 66.9 °F 90% 29.89 in 8.0 mi SSE 13.8 mph - N/A   Overcast
3:53 AM 70.0 °F 68.0 °F 93% 29.88 in 10.0 mi SSE 15.0 mph - N/A   Overcast
4:53 AM 70.0 °F 68.0 °F 93% 29.89 in 10.0 mi SSE 12.7 mph - N/A   Overcast
5:30 AM 69.8 °F 66.2 °F 88% 29.92 in 9.0 mi South 12.7 mph - 0.00 in   Light Drizzle
5:53 AM 70.0 °F 66.9 °F 90% 29.90 in 9.0 mi South 16.1 mph - 0.00 in   Light Drizzle
6:16 AM 69.8 °F 66.2 °F 88% 29.92 in 9.0 mi South 15.0 mph - 0.00 in   Light Drizzle
6:53 AM 70.0 °F 66.9 °F 90% 29.90 in 9.0 mi South 12.7 mph - 0.00 in   Overcast
7:53 AM 71.1 °F 66.9 °F 87% 29.91 in 9.0 mi South 12.7 mph 21.9 mph N/A   Overcast
8:53 AM 72.0 °F 66.9 °F 84% 29.91 in 9.0 mi South 15.0 mph 25.3 mph N/A   Overcast
9:53 AM 73.0 °F 68.0 °F 84% 29.92 in 10.0 mi South 17.3 mph 24.2 mph N/A   Overcast
10:53 AM 75.0 °F 68.0 °F 79% 29.94 in 10.0 mi South 16.1 mph 24.2 mph N/A   Overcast
11:53 AM 75.0 °F 66.9 °F 76% 29.94 in 10.0 mi South 15.0 mph 23.0 mph N/A   Overcast
12:53 PM 75.0 °F 66.9 °F 76% 29.94 in 10.0 mi South 6.9 mph - 0.00 in Rain Light Rain
1:11 PM 75.2 °F 68.0 °F 78% 29.96 in 10.0 mi SSE 6.9 mph - 0.00 in   Overcast
1:53 PM 73.9 °F 68.0 °F 82% 29.93 in 10.0 mi South 8.1 mph - 0.01 in   Overcast
2:53 PM 75.0 °F 69.1 °F 82% 29.92 in 10.0 mi SSE 6.9 mph - N/A   Overcast
3:53 PM 73.0 °F 69.1 °F 87% 29.92 in 6.0 mi SSE 9.2 mph - N/A   Mostly Cloudy
4:27 PM 73.4 °F 69.8 °F 88% 29.96 in 10.0 mi ESE 3.5 mph - N/A   Overcast
4:53 PM 73.0 °F 69.1 °F 87% 29.96 in 9.0 mi NNE 6.9 mph - N/A   Overcast
5:01 PM 62.6 °F 55.4 °F 77% 29.99 in 8.0 mi NNW 26.5 mph 33.4 mph N/A   Overcast
5:13 PM 57.2 °F 53.6 °F 88% 30.01 in 5.0 mi North 24.2 mph 31.1 mph 0.00 in Rain Light Rain
5:53 PM 54.0 °F 50.0 °F 86% 30.06 in 5.0 mi North 17.3 mph 35.7 mph 0.09 in Rain Light Rain
6:43 PM 51.8 °F 46.4 °F 82% 30.10 in 10.0 mi NNW 21.9 mph 29.9 mph 0.01 in Rain Light Rain
6:53 PM 52.0 °F 46.9 °F 83% 30.11 in 8.0 mi North 13.8 mph 25.3 mph 0.01 in Rain Light Rain
7:40 PM 50.0 °F 46.4 °F 87% 30.15 in 6.0 mi North 18.4 mph 25.3 mph 0.00 in Rain Light Rain
7:53 PM 50.0 °F 46.9 °F 89% 30.15 in 8.0 mi NNW 11.5 mph 20.7 mph 0.00 in Rain Light Rain
8:43 PM 48.2 °F 44.6 °F 87% 30.17 in 8.0 mi North 17.3 mph 32.2 mph 0.00 in   Light Drizzle
8:53 PM 48.9 °F 45.0 °F 86% 30.17 in 9.0 mi North 19.6 mph 27.6 mph 0.00 in   Light Drizzle
9:05 PM 48.2 °F 44.6 °F 87% 30.19 in 9.0 mi North 15.0 mph 25.3 mph 0.00 in Rain Light Rain
9:53 PM 48.0 °F 46.0 °F 93% 30.22 in 8.0 mi NNW 11.5 mph 24.2 mph 0.00 in   Light Drizzle
10:53 PM 48.0 °F 45.0 °F 89% 30.22 in 9.0 mi NNW 15.0 mph 24.2 mph 0.00 in   Light Drizzle
11:53 PM 48.0 °F 44.1 °F 86% 30.24 in 9.0 mi North 18.4 mph 23.0 mph 0.00 in   Overcast